[[{"header":{"parameterUnit":"m.s-1","parameterCategory":1,"la1":30.2991,"la2":30.254,"lo1":-89.0895,"lo2":-89.0444,"dy":0.0017,"dx":0.0017,"nx":28,"ny":28,"refTime":"2023-07-26T03:00:00:Z","depth":0,"parameterNumber":2,"parameterNumberName":"U-component_of_WINDS"},"data":[0,0,0,0,0,0,0,0,0,0,0,0,0,0,0,0,0,0,0,0,0,0,0,0,0,0,0,0,0,0,0,0,0,0,0,0,0,0,0,0,0,0,0,0,0,0,0,0,0,0,0,0,0,0,0,0,0,0,-0.3556,-0.3556,0,-0.3567,-0.3567,-0.3567,-0.3585,-0.3585,-0.3586,-0.3586,-0.3597,-0.3597,-0.3597,0,0,0,0,0,0,0,0,0,0,0,0,0,-0.355,-0.355,-0.3556,-0.3556,-0.3556,-0.3567,-0.3567,-0.3567,-0.3585,-0.3585,-0.3586,-0.3586,-0.3597,-0.3597,-0.3597,0,0,0,0,0,0,0,0,0,0,0,0,0,-0.3556,-0.355,-0.3556,-0.3566,-0.3567,-0.3567,-0.3567,-0.3567,-0.3585,-0.3585,-0.3586,-0.3586,-0.3597,-0.3597,-0.3597,-0.3586,0,0,-0.3596,-0.3596,0,0,0,0,0,0,0,0,-0.3556,-0.3556,-0.3565,-0.3566,-0.3567,-0.3575,-0.3569,-0.3573,-0.3585,-0.3578,-0.3586,-0.3587,-0.3589,-0.359,-0.359,-0.3587,-0.3587,-0.3596,-0.3596,-0.3596,-0.3596,0,0,0,0,0,0,0,-0.3555,-0.3556,-0.356,-0.3565,-0.3566,-0.357,-0.3572,-0.357,-0.3581,-0.3579,-0.358,-0.3581,-0.359,-0.359,-0.3591,-0.3587,-0.3596,-0.3596,-0.3596,-0.3596,-0.3576,-0.3575,0,0,0,0,0,0,-0.3553,-0.3555,-0.356,-0.356,-0.3562,-0.357,-0.3572,-0.3572,-0.3581,-0.3582,-0.3581,-0.3582,-0.359,-0.3591,-0.3591,-0.358,-0.3596,-0.3596,-0.3596,-0.3576,-0.3576,-0.3575,0,0,0,0,0,0,-0.3553,-0.3554,-0.3559,-0.3558,-0.3559,-0.357,-0.357,-0.3572,-0.3573,-0.3582,-0.3584,-0.358,-0.3591,-0.3591,-0.3587,-0.358,-0.3596,-0.3596,-0.3577,-0.3576,-0.3575,-0.3556,0,0,0,0,0,0,-0.3553,-0.3553,-0.3549,-0.3558,-0.3559,-0.3555,-0.3569,-0.3572,-0.3573,-0.3574,-0.3582,-0.3583,-0.3591,-0.3587,-0.3587,-0.358,-0.3596,-0.3577,-0.3576,-0.3576,-0.3557,-0.3555,-0.3552,0,0,0,0,0,-0.3553,-0.3543,-0.3549,-0.355,-0.3555,-0.3554,-0.3555,-0.3565,-0.3572,-0.3568,-0.3574,-0.3583,-0.3581,-0.3587,-0.3587,-0.358,-0.3578,-0.3577,-0.3576,-0.3558,-0.3555,-0.3552,0,0,0,0,0,0,-0.3533,-0.3545,-0.3551,-0.3544,-0.3548,-0.3558,-0.3553,-0.3561,-0.3563,-0.3564,-0.3576,-0.3577,-0.3572,-0.3576,-0.3582,-0.357,-0.3581,-0.358,-0.3568,-0.3565,-0.3562,-0.3561,-0.3596,0,0,0,0,0,-0.3528,-0.3527,-0.3537,-0.353,-0.3532,-0.3542,-0.3542,-0.355,-0.3554,-0.3556,-0.3562,-0.3565,-0.3566,-0.3566,-0.3567,-0.3558,-0.356,-0.3554,-0.3551,-0.3549,-0.3548,-0.3544,-0.3541,-0.3571,-0.3571,-0.3571,0,0,-0.3518,-0.3524,-0.3522,-0.3527,-0.3531,-0.3529,-0.3543,-0.3541,-0.354,-0.3555,-0.3552,-0.3556,-0.3562,-0.3555,-0.3553,-0.3558,-0.354,-0.3548,-0.3546,-0.3546,-0.3542,-0.3539,-0.3537,-0.357,-0.357,-0.3571,0,0,-0.3498,-0.3502,-0.3497,-0.3501,-0.3507,-0.3514,-0.3512,-0.3521,-0.3524,-0.3521,-0.3532,-0.3532,-0.3532,-0.3535,-0.3537,-0.3519,-0.3527,-0.3519,-0.3506,-0.3502,-0.3499,-0.3497,-0.3491,-0.3488,-0.3518,-0.3518,-0.3518,0,-0.3483,-0.3482,-0.3493,-0.3491,-0.3492,-0.3506,-0.3501,-0.3504,-0.351,-0.351,-0.3517,-0.3518,-0.3522,-0.3517,-0.3513,-0.3514,-0.3513,-0.3518,-0.3499,-0.3497,-0.3495,-0.3489,-0.3486,-0.3517,-0.3517,-0.3517,-0.3517,0,-0.3464,-0.3463,-0.3458,-0.3464,-0.3465,-0.3461,-0.3471,-0.3471,-0.3479,-0.3485,-0.3482,-0.3488,-0.349,-0.349,-0.3497,-0.3485,-0.3489,-0.3497,-0.3507,-0.3491,-0.3485,-0.3483,-0.3515,-0.3516,-0.3516,-0.3516,0,0,-0.3431,-0.3443,-0.3441,-0.3444,-0.3452,-0.3451,-0.3448,-0.3451,-0.345,-0.3454,-0.3452,-0.3452,-0.346,-0.3462,-0.347,-0.3466,-0.3452,-0.3475,-0.3475,-0.347,-0.3439,-0.3432,-0.3429,-0.3458,-0.3457,-0.3457,-0.3439,0,-0.3412,-0.3407,-0.3417,-0.341,-0.3409,-0.3423,-0.342,-0.3425,-0.3431,-0.3431,-0.3438,-0.3438,-0.3449,-0.345,-0.3447,-0.3454,-0.3445,-0.3455,-0.3455,-0.3455,-0.3452,-0.3426,-0.3419,-0.3401,-0.3437,-0.3436,-0.3436,0,-0.3388,-0.3391,-0.3384,-0.3393,-0.3393,-0.339,-0.3394,-0.3394,-0.34,-0.3404,-0.3407,-0.3416,-0.3414,-0.3425,-0.3422,-0.3429,-0.3429,-0.3433,-0.3432,-0.3432,-0.3443,-0.3424,-0.3396,-0.3393,-0.3433,-0.3433,-0.3433,0,-0.3364,-0.3366,-0.3362,-0.3364,-0.3375,-0.3372,-0.3377,-0.3383,-0.3384,-0.3387,-0.3388,-0.3391,-0.3392,-0.3395,-0.3404,-0.3412,-0.34,-0.3412,-0.3404,-0.3403,-0.3399,-0.3399,-0.337,-0.3401,-0.3401,-0.3401,-0.3402,0,-0.334,-0.3335,-0.3351,-0.3348,-0.3343,-0.3355,-0.335,-0.3356,-0.3361,-0.336,-0.3373,-0.3371,-0.3385,-0.3385,-0.3393,-0.3389,-0.339,-0.3393,-0.3395,-0.3392,-0.3391,-0.3391,-0.3392,-0.3401,-0.3401,-0.3401,-0.3401,0,-0.3311,-0.3322,-0.3318,-0.3329,-0.3332,-0.3327,-0.3336,-0.3334,-0.3342,-0.334,-0.334,-0.3352,-0.3353,-0.3363,-0.3366,-0.3372,-0.3364,-0.3369,-0.3362,-0.3363,-0.3354,-0.3354,-0.3323,-0.3319,-0.3354,-0.3353,-0.3353,0,-0.3295,-0.3292,-0.3302,-0.3302,-0.3306,-0.3306,-0.3308,-0.332,-0.3321,-0.3328,-0.3325,-0.3327,-0.3329,-0.333,-0.3339,-0.3341,-0.3346,-0.3335,-0.3346,-0.3343,-0.3345,-0.3344,-0.3344,-0.3332,-0.3331,-0.3331,-0.3331,0,-0.3265,-0.3271,-0.3272,-0.3276,-0.3277,-0.3281,-0.3285,-0.3284,-0.3298,-0.3299,-0.33,-0.3302,-0.3305,-0.3307,-0.3311,-0.3316,-0.3325,-0.3327,-0.3325,-0.3321,-0.3317,-0.3318,-0.3354,-0.3327,-0.3328,-0.3328,-0.3328,-0.3328,-0.3242,-0.3239,-0.3246,-0.3248,-0.3252,-0.3256,-0.3255,-0.3263,-0.3264,-0.3268,-0.3275,-0.3275,-0.3282,-0.3289,-0.3293,-0.3293,-0.3299,-0.3296,-0.3295,-0.3294,-0.3292,-0.3318,-0.3294,-0.3294,-0.3294,-0.3294,-0.3294,0,-0.3212,-0.3217,-0.3219,-0.3224,-0.3225,-0.3235,-0.3241,-0.3241,-0.3241,-0.3247,-0.3249,-0.325,-0.3252,-0.3262,-0.3265,-0.3263,-0.3268,-0.3263,-0.3263,-0.3264,-0.3287,-0.3288,-0.326,-0.326,-0.326,-0.326,-0.326,-0.326,-0.3196,-0.3192,-0.3199,-0.3198,-0.3203,-0.3204,-0.3206,-0.3209,-0.3214,-0.3215,-0.3217,-0.3224,-0.3231,-0.3235,-0.3237,-0.324,-0.324,-0.3234,-0.3238,-0.3259,-0.3262,-0.3265,-0.3266,-0.3234,-0.3234,-0.3215,-0.3215,-0.3215]},{"header":{"parameterUnit":"m.s-1","parameterCategory":1,"la1":30.2991,"la2":30.254,"lo1":-89.0895,"lo2":-89.0444,"dy":0.0017,"dx":0.0017,"nx":28,"ny":28,"refTime":"2023-07-26T03:00:00:Z","depth":0,"parameterNumber":3,"parameterNumberName":"V-component_of_WINDS"},"data":[0,0,0,0,0,0,0,0,0,0,0,0,0,0,0,0,0,0,0,0,0,0,0,0,0,0,0,0,0,0,0,0,0,0,0,0,0,0,0,0,0,0,0,0,0,0,0,0,0,0,0,0,0,0,0,0,0,0,-2.4471,-2.4472,0,-2.4503,-2.4503,-2.4503,-2.4498,-2.4498,-2.4497,-2.4497,-2.4526,-2.4528,-2.4529,0,0,0,0,0,0,0,0,0,0,0,0,0,-2.4406,-2.4407,-2.4471,-2.4472,-2.4472,-2.4503,-2.4503,-2.4503,-2.4498,-2.4498,-2.4497,-2.4496,-2.4526,-2.4527,-2.4529,0,0,0,0,0,0,0,0,0,0,0,0,0,-2.4435,-2.4408,-2.4471,-2.4473,-2.4474,-2.4503,-2.4503,-2.4504,-2.4498,-2.4498,-2.4497,-2.4496,-2.4525,-2.4527,-2.4529,-2.4557,0,0,-2.4535,-2.4536,0,0,0,0,0,0,0,0,-2.4434,-2.4438,-2.4473,-2.4473,-2.4474,-2.4496,-2.4491,-2.4521,-2.4499,-2.4489,-2.4497,-2.4496,-2.4517,-2.4519,-2.4527,-2.4558,-2.456,-2.4535,-2.4536,-2.4537,-2.4538,0,0,0,0,0,0,0,-2.4432,-2.4437,-2.4484,-2.4473,-2.4474,-2.4472,-2.4476,-2.4497,-2.4507,-2.449,-2.449,-2.4493,-2.4517,-2.4525,-2.4527,-2.456,-2.4535,-2.4537,-2.4538,-2.4539,-2.4618,-2.4619,0,0,0,0,0,0,-2.4429,-2.4435,-2.4483,-2.4485,-2.4452,-2.4474,-2.4478,-2.449,-2.4507,-2.4509,-2.4494,-2.4493,-2.4522,-2.4525,-2.4528,-2.4564,-2.4537,-2.4539,-2.454,-2.4617,-2.4618,-2.4619,0,0,0,0,0,0,-2.4428,-2.4434,-2.4481,-2.446,-2.4466,-2.4476,-2.4489,-2.4491,-2.4499,-2.451,-2.4512,-2.4501,-2.4522,-2.4526,-2.4551,-2.4565,-2.454,-2.4542,-2.4616,-2.4617,-2.4619,-2.4634,0,0,0,0,0,0,-2.4426,-2.4433,-2.4444,-2.446,-2.4467,-2.4504,-2.449,-2.4492,-2.4502,-2.4501,-2.4517,-2.4518,-2.4521,-2.4548,-2.4552,-2.4567,-2.4543,-2.4615,-2.4616,-2.4618,-2.4632,-2.4635,-2.4638,0,0,0,0,0,-2.4424,-2.4446,-2.4445,-2.4451,-2.4481,-2.4504,-2.4508,-2.4512,-2.4503,-2.4515,-2.4522,-2.4518,-2.4562,-2.455,-2.4556,-2.4571,-2.4614,-2.4616,-2.4618,-2.463,-2.4635,-2.4638,0,0,0,0,0,0,-2.4431,-2.4448,-2.4447,-2.4475,-2.4489,-2.4503,-2.4518,-2.4516,-2.4531,-2.4529,-2.4533,-2.4536,-2.4562,-2.4568,-2.4555,-2.4599,-2.4587,-2.459,-2.4594,-2.4598,-2.4602,-2.46,-2.4545,0,0,0,0,0,-2.4436,-2.4454,-2.4468,-2.4492,-2.4499,-2.4507,-2.4517,-2.4519,-2.4533,-2.4538,-2.4547,-2.456,-2.4577,-2.4588,-2.4604,-2.4632,-2.4636,-2.4645,-2.4649,-2.4651,-2.4654,-2.4672,-2.4676,-2.4626,-2.4626,-2.4626,0,0,-2.4446,-2.4458,-2.4469,-2.4493,-2.4504,-2.4523,-2.4512,-2.4531,-2.4545,-2.454,-2.4565,-2.4572,-2.4587,-2.4614,-2.4627,-2.4621,-2.4669,-2.4654,-2.4656,-2.4658,-2.4674,-2.4679,-2.4683,-2.4627,-2.4627,-2.4627,0,0,-2.4475,-2.4485,-2.4507,-2.4518,-2.4534,-2.454,-2.4545,-2.4561,-2.4566,-2.4591,-2.4588,-2.4604,-2.4633,-2.4644,-2.4653,-2.4687,-2.4684,-2.4692,-2.4709,-2.4726,-2.473,-2.4733,-2.4747,-2.4751,-2.4694,-2.4695,-2.4695,0,-2.4485,-2.4514,-2.4518,-2.4539,-2.455,-2.4548,-2.457,-2.458,-2.46,-2.4608,-2.4601,-2.4638,-2.4647,-2.4678,-2.4687,-2.4694,-2.47,-2.4691,-2.4729,-2.4732,-2.4736,-2.4749,-2.4754,-2.4696,-2.4695,-2.4695,-2.4695,0,-2.4527,-2.4547,-2.4562,-2.4584,-2.4596,-2.4618,-2.4625,-2.4637,-2.4638,-2.4644,-2.467,-2.4681,-2.47,-2.4707,-2.4708,-2.4739,-2.4735,-2.4728,-2.4716,-2.4742,-2.4754,-2.4759,-2.4697,-2.4697,-2.4696,-2.4696,0,0,-2.4561,-2.4585,-2.4591,-2.4601,-2.462,-2.4635,-2.4656,-2.4676,-2.4687,-2.4701,-2.472,-2.4744,-2.4739,-2.475,-2.4751,-2.4766,-2.4794,-2.4757,-2.4758,-2.4765,-2.483,-2.4836,-2.4842,-2.4792,-2.4792,-2.4793,-2.483,0,-2.4593,-2.4632,-2.4636,-2.4671,-2.469,-2.4688,-2.4707,-2.472,-2.4726,-2.4743,-2.475,-2.4768,-2.4759,-2.4765,-2.478,-2.4787,-2.4807,-2.4785,-2.4809,-2.481,-2.4807,-2.4848,-2.4854,-2.4888,-2.4834,-2.4835,-2.4836,0,-2.4635,-2.4652,-2.4689,-2.4706,-2.4714,-2.4731,-2.475,-2.4766,-2.4781,-2.4785,-2.4797,-2.4797,-2.4819,-2.4805,-2.4836,-2.4821,-2.4831,-2.4836,-2.4837,-2.4841,-2.4825,-2.4854,-2.4899,-2.4904,-2.4843,-2.4842,-2.4842,0,-2.4658,-2.469,-2.4717,-2.4725,-2.4746,-2.4758,-2.4767,-2.4781,-2.4793,-2.4809,-2.4817,-2.4835,-2.4846,-2.486,-2.4864,-2.4853,-2.4896,-2.4881,-2.49,-2.49,-2.491,-2.4909,-2.4958,-2.4914,-2.4914,-2.4914,-2.4914,0,-2.4694,-2.4717,-2.4728,-2.4744,-2.477,-2.4775,-2.48,-2.4808,-2.4821,-2.4839,-2.4838,-2.4855,-2.486,-2.4877,-2.4881,-2.4907,-2.4911,-2.4915,-2.4916,-2.4916,-2.4916,-2.4924,-2.4922,-2.4915,-2.4915,-2.4914,-2.4914,0,-2.4725,-2.4733,-2.4762,-2.4779,-2.4784,-2.4803,-2.4817,-2.4833,-2.484,-2.4863,-2.4868,-2.4878,-2.4899,-2.4905,-2.4929,-2.4932,-2.4963,-2.4961,-2.4959,-2.4959,-2.4978,-2.4977,-2.5035,-2.5043,-2.4992,-2.4992,-2.4993,0,-2.4748,-2.4766,-2.4786,-2.4798,-2.4808,-2.4828,-2.4841,-2.4846,-2.4859,-2.4878,-2.4892,-2.4913,-2.493,-2.4964,-2.4973,-2.4992,-2.4991,-2.501,-2.4994,-2.4994,-2.4993,-2.4993,-2.4996,-2.5014,-2.5014,-2.5015,-2.5015,0,-2.4788,-2.4792,-2.4811,-2.4832,-2.4848,-2.4864,-2.4879,-2.4889,-2.4897,-2.4912,-2.4934,-2.4947,-2.4973,-2.4994,-2.5014,-2.5022,-2.5021,-2.502,-2.5026,-2.5027,-2.5025,-2.5028,-2.4969,-2.5019,-2.5018,-2.5018,-2.5018,-2.5018,-2.4817,-2.4834,-2.4851,-2.4873,-2.4885,-2.49,-2.4917,-2.4926,-2.4945,-2.4967,-2.4968,-2.4993,-2.5008,-2.5034,-2.5044,-2.5063,-2.5057,-2.5065,-2.5067,-2.5069,-2.5072,-2.5021,-2.5066,-2.5066,-2.5066,-2.5066,-2.5066,0,-2.4859,-2.4871,-2.489,-2.4913,-2.493,-2.4927,-2.4945,-2.4959,-2.4981,-2.4996,-2.5013,-2.5039,-2.506,-2.5071,-2.5091,-2.5104,-2.5104,-2.511,-2.511,-2.5112,-2.5075,-2.5069,-2.511,-2.511,-2.511,-2.511,-2.511,-2.511,-2.4883,-2.4912,-2.4918,-2.4953,-2.4963,-2.4988,-2.4999,-2.5012,-2.5025,-2.5054,-2.5072,-2.5079,-2.5093,-2.5114,-2.5133,-2.5136,-2.5144,-2.5151,-2.5153,-2.5119,-2.5114,-2.511,-2.5105,-2.5152,-2.5153,-2.5189,-2.519,-2.519]}]]